Temperature
17 17 17 17 17 17 17 17 16 17 17 17 17 17 17 17 17 17 17 17 17 18 18 18 18 18 18 17 17 17 17 17 17 16 16 16 16 16 16 16 16 16 16
17 17 17 17 16 16 16 16 16 16 16 17 17 17 17 17 17 17 17 17 17 17 17 17 17 17 17 17 17 17 17 17 17 17 16 16 16 16 16 16 16 16 16
17 17 16 16 16 16 16 16 16 16 17 17 17 16 17 17 17 17 17 17 17 17 17 17 17 17 17 17 17 17 17 17 17 17 17 16 16 16 16 16 16 16 16
16 16 16 16 16 16 16 16 16 16 16 16 16 16 17 17 17 17 17 17 17 17 17 17 17 17 17 17 17 17 17 17 17 17 17 16 16 16 16 16 16 16 16
16 16 16 16 16 16 16 16 15 16 16 16 16 16 16 16 17 17 17 17 17 17 17 17 17 16 16 16 17 17 16 17 17 17 17 16 16 16 16 16 16 16 16
16 16 16 16 16 15 15 15 15 16 16 16 16 17 17 17 16 17 17 17 17 17 17 16 16 16 16 16 16 16 16 16 16 16 16 16 16 16 16 16 16 16 16
16 16 15 15 15 15 15 15 15 15 16 16 16 16 17 17 17 16 16 16 16 16 16 16 16 16 16 16 16 16 16 16 16 16 16 16 16 16 16 16 16 16 16
16 16 15 15 15 15 15 15 15 15 16 16 16 16 17 17 17 17 17 16 16 16 16 16 16 16 16 16 16 16 16 16 16 16 16 16 16 16 16 16 16 16 16
15 15 15 15 15 15 15 15 15 15 16 16 16 16 16 16 16 17 16 16 16 16 16 16 16 16 16 16 15 15 15 15 15 16 16 16 16 16 16 16 16 16 16
15 15 15 15 15 15 15 15 15 15 15 15 16 16 16 16 16 16 16 16 16 16 16 16 16 15 15 15 15 15 15 15 15 15 15 15 15 15 15 15 15 15 16
15 15 15 15 15 14 14 14 15 15 15 15 15 16 16 16 16 17 17 16 16 16 16 16 15 15 15 15 15 15 15 15 15 15 15 15 15 15 15 15 15 15 15
16 15 15 15 15 14 14 14 14 14 14 15 15 15 15 16 16 16 16 17 16 16 16 16 16 15 15 15 15 15 15 15 15 15 15 15 15 15 15 15 15 15 15
16 16 15 15 15 14 14 14 14 14 14 14 15 15 15 15 15 15 15 16 16 16 16 16 16 15 15 15 14 14 14 14 14 15 15 15 15 15 15 15 15 15 15
17 16 16 16 15 15 14 14 14 14 14 14 14 14 14 14 15 15 15 15 15 16 16 16 16 15 15 15 14 14 14 14 14 14 14 14 14 15 15 15 15 15 15
17 17 16 16 15 15 14 14 14 14 14 14 14 14 14 14 14 14 15 15 15 15 15 16 15 15 15 14 14 14 13 13 14 14 14 14 14 14 14 15 15 15 15
17 17 16 16 15 15 15 15 14 14 14 14 14 14 14 14 14 14 14 14 14 14 14 15 15 15 15 14 14 14 13 13 13 13 13 14 14 14 14 14 14 14 14
17 17 16 16 15 15 15 15 15 14 14 14 14 14 14 14 14 14 14 14 14 14 14 14 14 14 14 14 14 13 13 13 13 13 13 13 13 14 14 14 14 14 14
17 17 17 16 16 16 15 15 15 15 14 14 14 14 14 14 14 14 14 14 14 14 14 14 14 14 14 14 14 13 13 13 13 13 13 13 13 13 13 13 14 14 14
17 17 17 17 16 16 16 16 16 15 15 15 15 14 14 14 14 14 14 14 14 14 14 13 14 14 14 14 13 13 13 13 13 13 13 13 13 13 13 13 13 13 14
18 17 17 17 17 16 16 16 16 16 15 15 15 15 15 14 14 14 14 14 14 14 14 13 13 13 14 14 14 14 13 13 13 13 13 13 13 13 13 13 13 13 13
17 17 17 17 17 16 16 16 16 16 16 16 15 15 15 15 15 14 14 14 13 13 13 13 13 13 14 14 14 14 13 13 13 13 13 13 13 13 13 13 13 13 13
17 17 17 17 17 16 16 16 16 16 15 15 15 15 15 15 15 15 15 14 14 14 13 13 13 13 13 13 13 13 13 13 13 13 13 13 13 13 13 13 13 13 13
17 16 16 16 16 17 16 16 16 16 16 15 15 15 15 14 15 15 15 15 14 14 14 14 13 14 14 13 13 13 13 12 12 12 12 12 12 12 12 12 12 13 13
16 16 16 16 16 16 16 16 16 16 15 16 15 15 15 15 15 14 14 14 14 14 14 14 14 14 14 13 13 13 12 12 12 12 12 12 12 12 12 12 12 12 12
16 16 16 15 15 16 15 15 15 15 15 15 15 15 15 14 14 14 14 14 13 14 13 13 13 13 13 13 13 12 12 11 11 12 12 12 12 12 12 12 12 12 12
15 15 15 15 15 15 15 14 14 14 14 14 14 14 14 14 14 14 13 13 13 13 13 13 13 13 13 13 12 12 12 11 11 11 12 12 12 12 12 12 12 12 12
Wind_Speed
3 4 3 3 2 3 3 2 2 1 1 1 2 1 2 2 3 4 9 11 12 11 11 11 11 11 11 11 11 10 9 9 9 9 9 10 10 9 9 8 8 8 8
5 2 1 1 3 5 4 2 1 1 1 0 1 0 1 2 1 2 5 9 11 11 12 12 12 12 12 11 12 11 10 9 9 10 10 11 11 11 10 9 9 9 9
4 2 1 2 3 2 1 0 2 2 2 2 2 2 2 1 1 1 1 5 9 12 13 12 13 13 12 12 12 12 12 11 11 11 11 12 12 12 12 11 10 10 10
3 3 3 4 4 2 2 1 2 3 2 2 1 0 1 1 2 3 4 5 5 7 12 13 13 14 13 13 12 12 13 12 12 12 12 13 13 13 13 13 12 12 11
2 3 4 3 5 1 3 4 4 3 3 3 2 1 1 1 1 2 2 3 4 5 8 13 14 14 14 14 13 13 14 13 13 13 13 14 14 14 14 14 14 13 13
3 3 4 2 4 4 4 4 2 1 2 2 4 1 0 1 1 1 1 1 4 4 6 8 11 12 14 14 14 14 14 14 14 14 14 14 15 15 15 16 16 16 15
4 3 4 1 2 5 4 4 3 3 1 1 3 2 3 3 3 2 1 2 1 1 4 7 7 7 10 14 14 14 14 14 15 15 15 15 15 15 17 18 18 18 18
4 3 2 1 3 4 3 2 2 3 2 2 2 3 1 2 1 3 2 2 2 2 0 4 6 6 6 9 11 13 14 14 14 14 15 15 16 17 17 17 18 19 20
4 3 2 2 1 1 3 1 3 3 3 2 3 3 3 3 1 2 2 3 2 1 1 1 4 5 5 7 9 10 11 11 11 12 14 16 17 18 17 17 18 20 21
5 6 4 2 1 2 3 1 4 3 2 3 1 2 2 2 2 1 1 3 3 2 1 2 2 3 5 6 7 7 8 8 9 10 11 14 16 17 18 18 18 19 21
6 6 6 4 2 0 3 4 3 3 3 4 4 2 1 1 3 2 0 1 2 3 3 1 1 2 5 7 8 7 5 4 5 6 7 9 11 13 15 17 18 19 20
6 6 6 5 3 2 4 2 1 0 2 3 4 4 3 2 2 2 2 2 1 2 3 2 1 1 3 7 9 8 6 4 3 4 5 6 8 10 13 14 16 17 19
6 8 6 5 4 3 3 2 2 0 1 1 2 4 4 4 3 3 3 4 3 1 3 3 3 3 3 9 10 7 7 6 4 4 4 5 7 9 10 12 13 15 16
6 9 7 6 5 5 5 4 3 4 3 1 3 1 3 4 3 3 2 3 4 4 2 3 2 3 3 6 9 5 7 8 7 7 7 7 8 8 9 9 11 12 14
6 9 8 7 6 5 4 4 4 3 3 3 4 3 3 3 2 2 2 2 2 4 3 0 1 2 5 5 9 6 5 9 11 11 11 10 10 10 10 10 10 11 13
5 8 8 8 7 7 6 5 5 5 4 4 4 2 2 4 3 2 2 2 2 3 3 3 2 1 2 2 5 4 6 9 15 17 17 16 14 13 12 12 12 12 13
6 7 8 7 7 7 7 7 6 5 6 6 5 5 5 4 3 4 3 3 3 3 4 4 3 1 2 3 4 6 9 11 13 20 22 21 18 17 16 15 14 14 14
7 8 8 8 8 8 8 8 8 7 7 7 7 6 5 6 6 5 4 5 4 4 4 5 5 4 5 5 6 6 8 11 12 14 18 21 22 21 19 18 17 17 17
9 9 9 9 9 8 8 9 8 8 7 7 7 7 7 7 6 5 5 5 5 5 4 5 5 5 5 5 5 6 7 6 12 14 16 21 23 23 22 22 21 21 20
10 9 10 10 9 9 8 9 9 9 8 8 7 7 7 7 8 7 7 7 7 6 6 6 6 6 6 6 5 5 5 6 7 10 8 12 19 25 26 26 25 24 23
12 10 9 9 9 9 10 10 9 10 9 9 8 8 9 10 11 9 9 7 6 6 6 6 6 6 6 4 4 4 5 5 5 5 5 5 7 10 16 22 25 26 26
9 9 9 9 10 11 12 14 11 9 8 9 9 9 10 11 13 15 15 13 10 9 8 7 7 7 7 5 4 4 4 4 5 4 4 5 4 5 6 12 19 26 28
8 8 8 9 9 9 9 10 11 7 7 7 8 8 10 12 11 11 14 17 17 18 16 11 11 11 9 7 6 6 6 6 6 5 5 7 6 7 5 14 18 20 25
6 6 6 7 7 9 10 11 11 9 9 9 9 9 9 11 13 10 10 11 12 14 16 15 14 15 14 10 9 8 8 8 8 7 7 9 8 8 9 10 16 17 20
4 4 4 5 7 7 9 10 10 7 8 10 10 11 11 11 15 15 12 12 12 11 16 20 20 20 22 20 13 8 8 8 10 8 7 9 9 8 8 7 11 18 21
3 4 5 5 6 6 7 9 11 7 8 8 9 11 14 14 15 14 11 12 14 13 12 13 12 16 17 17 18 14 12 11 11 9 8 8 8 7 7 6 6 8 12
Wind_Direction
63 64 63 10 352 50 77 51 50 49 340 292 294 327 354 354 5 73 135 154 156 164 170 178 185 189 187 185 186 185 183 183 184 187 187 183 179 177 177 174 171 168 165
57 32 92 37 33 57 52 12 7 248 230 195 264 0 310 324 11 62 144 166 172 178 182 188 191 196 198 197 195 189 187 189 190 193 196 194 190 189 189 186 184 181 180
64 5 69 71 31 47 99 62 322 279 229 221 203 192 215 245 359 5 240 185 182 191 195 197 199 201 203 204 204 198 196 197 198 200 203 205 203 200 198 197 196 193 190
56 1 52 54 346 350 45 73 13 352 359 344 359 1 133 167 221 235 243 220 190 186 195 202 205 206 208 209 208 203 203 206 207 208 209 212 212 210 207 206 205 202 199
79 49 73 38 304 32 46 34 54 12 347 357 311 205 227 153 184 244 246 225 190 187 185 196 207 210 211 211 207 206 207 210 213 214 214 216 217 216 215 213 213 210 208
81 29 106 41 351 57 51 51 19 350 304 322 314 89 138 131 199 84 295 250 179 196 183 184 195 209 214 214 209 208 211 214 217 219 220 220 220 220 221 220 218 216 215
106 12 81 111 53 78 52 35 5 302 220 20 309 251 187 184 150 129 95 9 61 172 175 170 179 190 200 212 212 211 214 217 220 221 220 221 221 224 226 224 222 221 220
163 151 80 141 77 107 80 45 32 336 348 85 328 307 187 142 246 130 142 139 46 15 158 160 169 183 204 190 205 211 216 221 224 224 225 226 227 226 228 229 227 226 225
156 78 94 51 28 128 115 55 16 13 351 353 57 5 5 43 180 131 121 99 91 27 17 126 155 176 187 176 182 200 212 220 226 228 232 231 231 231 233 233 233 231 228
173 154 155 109 355 47 106 95 81 339 325 332 120 109 89 63 345 35 199 134 163 147 77 14 76 126 138 142 153 171 198 215 225 229 234 234 233 233 235 236 236 235 233
184 175 164 159 185 106 97 71 72 8 352 7 355 3 63 224 247 249 197 199 211 155 137 121 101 110 134 136 131 140 154 186 213 226 234 235 234 234 236 237 238 239 237
182 182 174 170 191 180 130 123 93 93 54 28 351 341 344 345 341 345 339 296 214 156 151 126 117 163 152 131 127 134 146 164 192 219 236 243 242 241 243 243 243 243 242
181 177 174 165 191 169 158 162 181 317 43 41 322 325 351 344 360 360 345 334 340 253 176 191 185 176 175 131 137 149 172 180 197 220 241 254 256 253 254 250 248 248 248
178 159 157 166 189 190 191 172 222 204 177 217 270 316 317 305 348 331 325 336 325 312 228 173 150 157 136 122 147 172 191 204 214 225 238 249 255 258 258 257 254 252 252
155 153 160 172 184 195 202 176 229 240 170 208 252 218 232 281 256 276 313 321 316 318 329 117 201 154 154 167 172 206 225 215 219 230 238 242 247 250 253 257 260 259 257
160 155 168 178 186 186 191 207 233 212 203 221 238 250 249 292 309 279 263 278 284 291 300 321 281 188 150 214 188 231 262 245 229 234 239 239 240 243 248 253 257 259 260
167 171 180 186 191 192 192 199 232 228 206 221 238 231 217 237 279 310 299 272 257 258 272 291 304 313 200 219 228 245 263 260 247 242 237 234 233 235 240 245 249 253 256
186 185 191 194 202 202 197 198 217 231 218 218 227 236 233 234 218 236 268 280 273 259 251 271 281 277 260 228 218 223 249 265 269 264 237 229 228 231 235 239 244 247 249
195 196 196 201 208 210 201 203 211 229 234 229 227 228 229 235 238 233 240 256 269 272 249 253 265 261 257 248 232 231 244 251 265 269 240 228 229 231 235 239 241 243 244
199 206 201 202 206 213 212 209 211 218 229 236 236 235 234 231 232 229 239 240 247 260 266 261 258 257 251 241 222 224 246 244 251 262 257 232 228 231 234 237 240 241 242
204 207 209 207 209 213 218 213 214 220 219 229 236 237 239 236 236 233 240 239 242 243 252 257 260 262 258 252 240 231 247 256 254 251 254 248 227 223 230 238 241 243 242
205 202 209 214 216 224 222 214 209 227 225 226 232 235 241 240 234 230 235 239 240 246 252 257 264 263 265 268 267 264 262 266 270 264 264 266 258 248 233 233 234 236 238
203 213 212 217 219 226 224 208 210 221 242 251 252 250 254 255 241 230 229 233 240 241 238 243 255 259 266 271 277 275 267 264 263 266 286 276 268 266 260 267 261 245 234
206 216 226 232 235 232 215 210 212 223 240 249 254 256 255 258 264 258 247 239 233 236 234 235 242 248 251 252 254 258 259 264 260 252 243 258 256 253 259 258 262 253 237
202 214 227 240 244 247 225 214 208 231 244 250 254 256 256 255 255 255 256 256 253 248 240 233 225 230 235 240 242 253 254 257 262 256 237 244 248 246 244 245 249 247 237
232 241 244 242 247 252 235 216 207 234 249 255 256 255 254 255 261 258 254 255 256 255 257 259 243 238 240 241 235 232 240 249 256 259 245 243 249 245 253 244 240 243 236
Height
1557 1557 1558 1558 1559 1559 1559 1560 1560 1560 1561 1562 1563 1564 1564 1566 1566 1567 1567 1569 1570 1572 1573 1575 1577 1579 1581 1582 1584 1586 1588 1589 1591 1593 1594 1596 1597 1599 1600 1601 1602 1603 1604
1556 1557 1557 1558 1558 1558 1558 1559 1560 1560 1561 1561 1562 1563 1564 1565 1566 1566 1567 1568 1570 1571 1572 1574 1576 1578 1579 1581 1583 1584 1586 1588 1590 1591 1593 1595 1597 1598 1599 1600 1602 1603 1604
1555 1556 1557 1557 1557 1558 1558 1559 1559 1559 1560 1561 1562 1562 1563 1564 1564 1565 1566 1568 1569 1570 1571 1572 1574 1576 1578 1579 1581 1582 1584 1586 1588 1590 1592 1594 1595 1597 1598 1599 1601 1602 1603
1555 1556 1557 1556 1557 1558 1558 1558 1558 1559 1560 1560 1561 1562 1562 1563 1564 1564 1565 1567 1568 1569 1570 1571 1572 1573 1575 1577 1578 1580 1582 1584 1586 1588 1590 1592 1593 1595 1597 1598 1599 1601 1602
1555 1556 1556 1556 1557 1558 1558 1557 1557 1558 1558 1559 1560 1561 1562 1562 1563 1564 1565 1566 1567 1568 1568 1569 1570 1571 1572 1574 1575 1577 1579 1581 1583 1585 1587 1589 1591 1593 1594 1596 1598 1599 1601
1555 1555 1555 1556 1556 1557 1557 1557 1557 1558 1558 1559 1560 1561 1561 1562 1563 1563 1564 1565 1566 1566 1567 1567 1568 1569 1570 1571 1572 1574 1576 1578 1580 1582 1584 1586 1588 1590 1592 1594 1595 1597 1598
1555 1555 1555 1556 1556 1556 1556 1556 1556 1557 1559 1559 1559 1560 1561 1562 1562 1563 1564 1564 1565 1566 1566 1566 1567 1567 1568 1569 1570 1571 1573 1575 1577 1579 1581 1583 1585 1587 1589 1590 1592 1594 1596
1554 1555 1555 1556 1556 1556 1556 1556 1556 1557 1559 1559 1559 1559 1560 1562 1562 1563 1563 1564 1564 1565 1565 1566 1566 1566 1566 1567 1568 1569 1570 1572 1574 1575 1577 1579 1581 1583 1585 1587 1589 1591 1592
1554 1554 1555 1555 1556 1556 1556 1556 1556 1557 1558 1559 1559 1560 1560 1561 1562 1563 1563 1563 1564 1564 1565 1565 1565 1565 1565 1565 1566 1567 1568 1569 1571 1572 1574 1576 1577 1579 1581 1583 1585 1586 1588
1553 1553 1554 1554 1555 1556 1556 1556 1556 1557 1558 1559 1559 1560 1560 1560 1562 1563 1563 1563 1563 1563 1564 1565 1564 1564 1564 1564 1565 1565 1566 1567 1568 1569 1570 1571 1573 1574 1576 1578 1580 1582 1584
1552 1552 1553 1553 1554 1555 1555 1555 1555 1556 1557 1557 1558 1560 1560 1561 1561 1562 1563 1563 1563 1563 1563 1563 1564 1564 1564 1563 1563 1564 1565 1565 1566 1567 1567 1568 1569 1570 1572 1573 1575 1577 1579
1550 1551 1552 1552 1553 1554 1554 1554 1555 1556 1556 1556 1557 1558 1560 1560 1561 1561 1561 1561 1561 1562 1562 1562 1562 1563 1563 1562 1562 1562 1563 1563 1564 1564 1564 1565 1566 1567 1568 1569 1570 1571 1573
1548 1549 1550 1551 1552 1552 1553 1553 1554 1555 1555 1555 1556 1557 1558 1559 1559 1560 1560 1560 1560 1561 1560 1560 1560 1561 1561 1560 1560 1561 1561 1561 1561 1561 1561 1562 1562 1563 1563 1564 1565 1566 1568
1547 1547 1548 1549 1550 1551 1552 1552 1553 1554 1554 1555 1556 1556 1557 1557 1558 1559 1560 1560 1559 1559 1559 1559 1559 1559 1559 1559 1558 1558 1558 1557 1557 1557 1558 1558 1558 1558 1559 1560 1560 1561 1562
1545 1545 1546 1547 1548 1549 1550 1551 1552 1553 1554 1554 1555 1555 1555 1556 1557 1558 1558 1559 1559 1558 1558 1558 1558 1557 1557 1557 1556 1556 1555 1554 1554 1553 1553 1553 1553 1554 1554 1555 1555 1556 1557
1543 1543 1544 1545 1546 1547 1548 1549 1550 1551 1552 1552 1552 1553 1554 1554 1555 1556 1556 1557 1557 1557 1556 1556 1556 1555 1555 1555 1554 1552 1551 1551 1550 1549 1549 1549 1549 1549 1549 1550 1550 1551 1551
1539 1540 1541 1543 1544 1545 1546 1547 1548 1549 1550 1550 1551 1551 1552 1552 1552 1553 1554 1554 1554 1554 1554 1553 1553 1553 1551 1551 1550 1549 1548 1547 1546 1545 1545 1545 1545 1544 1544 1544 1544 1545 1545
1536 1537 1538 1540 1541 1542 1544 1544 1545 1547 1548 1548 1548 1549 1549 1550 1550 1550 1550 1550 1551 1551 1551 1549 1549 1549 1548 1547 1546 1545 1544 1543 1542 1542 1541 1540 1540 1540 1539 1539 1538 1538 1539
1532 1533 1535 1536 1538 1539 1541 1541 1542 1543 1544 1545 1546 1546 1546 1547 1546 1547 1547 1547 1547 1547 1547 1546 1545 1545 1544 1543 1542 1541 1540 1539 1538 1537 1536 1536 1535 1535 1534 1534 1533 1533 1533
1528 1529 1531 1532 1534 1535 1537 1538 1539 1540 1541 1541 1542 1542 1543 1543 1543 1543 1543 1542 1542 1542 1542 1541 1540 1540 1539 1539 1538 1537 1535 1535 1534 1533 1533 1531 1530 1530 1529 1529 1528 1527 1527
1523 1525 1527 1529 1530 1531 1533 1534 1535 1536 1537 1537 1538 1538 1538 1538 1538 1538 1538 1538 1538 1537 1537 1536 1536 1535 1535 1534 1533 1532 1531 1530 1529 1529 1528 1527 1526 1524 1524 1523 1523 1522 1522
1519 1521 1523 1524 1526 1527 1529 1530 1531 1532 1533 1533 1533 1533 1533 1533 1533 1533 1533 1533 1533 1532 1531 1531 1530 1529 1528 1529 1528 1527 1526 1525 1523 1524 1523 1521 1520 1519 1518 1518 1517 1516 1516
1515 1517 1518 1520 1520 1522 1524 1526 1527 1528 1528 1528 1528 1528 1528 1528 1528 1527 1526 1526 1526 1525 1525 1524 1523 1522 1522 1522 1522 1521 1519 1518 1516 1516 1516 1513 1513 1512 1512 1511 1511 1510 1510
1510 1512 1513 1515 1517 1518 1519 1520 1521 1522 1522 1522 1522 1522 1522 1521 1522 1521 1521 1519 1518 1517 1517 1516 1515 1514 1515 1515 1515 1514 1513 1511 1509 1508 1509 1506 1505 1504 1504 1504 1504 1504 1503
1506 1507 1509 1511 1512 1513 1514 1515 1515 1515 1515 1515 1515 1515 1514 1514 1514 1514 1513 1512 1510 1509 1509 1508 1507 1506 1506 1506 1507 1506 1504 1504 1501 1500 1501 1500 1498 1497 1497 1496 1497 1496 1496
1503 1504 1505 1506 1507 1508 1508 1509 1509 1509 1508 1508 1508 1508 1507 1507 1506 1506 1505 1503 1501 1500 1500 1500 1499 1497 1497 1496 1497 1497 1496 1495 1493 1491 1492 1493 1491 1491 1490 1489 1489 1489 1488